Temperature
20 20 19 19 19 18 18 18 18 18 17 17 17 17 17 16 16 16 16 16 16 16 15 15 15 15 15 15 15 15 15 15 15 14 14 13 13 13 12 12 12 12 12
20 20 20 19 19 18 18 18 18 18 17 17 17 17 16 16 16 16 16 15 15 15 15 15 15 15 15 15 15 14 14 14 14 14 13 13 12 12 12 12 12 12 12
20 20 20 19 19 19 18 18 18 17 17 17 17 17 16 16 16 16 16 15 15 15 15 15 15 14 14 14 14 14 14 14 14 13 13 13 12 12 12 12 11 11 11
20 20 20 19 19 19 18 18 18 17 17 17 17 16 16 16 16 15 15 15 15 15 15 14 14 14 14 14 14 14 14 14 13 13 13 12 12 12 12 12 11 11 11
21 20 20 19 19 19 18 18 18 17 17 17 16 16 16 16 15 15 15 15 14 14 14 14 14 14 14 14 14 13 13 13 13 13 13 12 12 12 12 12 11 11 11
21 20 20 20 19 19 18 18 18 17 17 17 16 16 16 15 15 15 15 14 14 14 14 14 14 14 14 13 13 13 13 13 13 13 12 12 12 12 11 11 11 11 11
21 20 20 20 19 19 18 18 17 17 17 16 16 16 15 15 15 15 15 14 14 14 13 13 13 13 13 13 13 13 13 12 12 12 12 12 11 11 11 11 11 11 10
21 20 20 20 19 18 18 17 17 17 16 16 16 15 15 15 15 15 14 14 13 13 13 13 13 13 12 12 12 12 12 12 12 12 11 11 11 11 11 11 11 11 10
20 20 20 20 19 18 18 17 17 16 16 16 15 15 15 15 14 14 14 13 13 13 13 13 12 12 12 12 12 12 12 12 11 11 11 11 11 11 11 11 10 10 10
20 20 19 19 18 18 17 17 16 16 16 15 15 15 14 14 14 14 14 13 13 12 12 12 12 12 12 12 11 11 11 11 11 11 11 11 11 10 10 10 10 10 10
19 19 19 18 18 17 17 16 16 16 15 15 15 15 14 14 14 14 13 13 12 12 12 12 12 12 12 11 11 11 11 11 11 11 10 10 10 10 10 10 10 10 10
18 18 18 18 17 17 16 16 16 15 15 15 14 14 14 14 13 13 13 13 12 12 12 12 11 11 11 11 11 11 11 11 11 11 11 10 10 10 10 9 9 9 9
18 18 17 17 16 16 16 15 15 15 14 14 14 14 13 13 13 13 12 12 12 12 11 11 11 11 11 11 11 11 10 10 11 11 11 10 10 10 9 9 9 9 9
17 17 17 16 16 16 15 15 14 14 14 14 14 13 13 13 12 12 12 12 12 11 11 11 11 11 11 11 10 10 10 10 10 11 10 10 10 10 9 9 9 9 9
17 17 16 16 15 15 15 15 14 14 14 13 13 13 13 13 12 12 12 12 12 11 11 11 11 11 11 11 11 10 10 10 10 10 10 10 10 10 10 9 9 9 9
16 16 16 15 15 15 14 14 14 14 13 13 13 13 13 13 13 12 12 12 11 11 11 11 11 11 11 11 11 10 10 10 10 10 10 10 10 10 10 9 9 9 9
16 15 15 15 14 14 14 14 13 13 13 13 13 13 12 12 12 12 12 11 11 11 10 11 11 11 10 10 10 10 10 10 10 10 10 10 10 10 10 9 9 9 9
15 15 15 14 14 14 13 13 13 13 13 12 12 12 12 12 12 11 11 11 10 10 10 10 10 10 10 10 10 10 10 10 9 9 9 9 9 9 9 9 9 9 9
14 14 14 14 13 13 13 13 13 12 12 12 12 12 11 11 11 11 11 11 10 10 10 10 10 10 10 10 10 9 9 9 9 9 9 9 9 9 9 9 9 8 8
14 14 14 14 13 13 13 12 12 12 12 12 12 12 11 11 11 11 11 11 10 10 10 10 10 10 9 9 9 9 9 9 9 8 8 8 8 8 8 8 9 8 8
13 13 13 13 13 13 12 12 12 12 12 12 12 11 11 11 11 10 10 10 10 10 10 9 9 9 9 9 9 9 9 9 8 8 8 8 8 8 8 8 8 8 8
13 13 13 12 12 12 12 12 12 12 11 11 11 11 11 10 10 10 10 10 10 10 9 9 9 9 9 9 9 8 8 8 8 8 8 8 8 8 8 8 8 8 8
13 13 12 12 12 12 12 11 11 11 11 11 11 11 10 10 10 10 10 10 9 9 9 9 9 9 9 8 8 8 8 8 8 8 8 8 8 8 7 7 7 7 7
12 12 12 12 12 11 11 11 11 11 11 11 11 10 10 10 10 10 10 9 9 9 9 9 9 9 8 8 8 8 8 8 8 7 7 7 7 7 7 7 7 7 7
12 12 12 12 11 11 11 11 11 11 11 11 10 10 10 10 10 9 9 9 9 9 9 8 8 8 8 8 8 8 8 8 7 7 7 7 6 6 7 7 7 7 6
12 12 11 11 11 11 11 11 11 11 11 11 10 10 10 10 9 9 9 9 9 9 8 8 8 8 8 8 7 7 7 7 7 7 7 6 6 6 6 6 6 6 6
Wind_Speed
7 6 5 5 4 3 2 2 1 1 1 1 1 0 1 1 0 0 0 0 0 0 1 0 1 1 1 1 1 1 1 2 2 1 2 3 3 4 5 6 6 6 8
8 7 6 5 4 4 3 2 2 2 1 1 1 1 0 0 0 1 0 0 0 0 0 1 1 0 0 1 0 1 1 2 3 4 3 3 4 5 5 4 5 6 7
8 7 6 6 5 4 3 2 2 2 2 1 1 1 1 1 1 1 1 0 0 0 0 0 1 1 1 0 0 1 2 2 3 4 4 4 4 4 5 4 4 4 5
8 8 7 5 4 4 3 3 2 2 2 2 2 1 1 1 1 1 1 1 1 1 0 1 1 1 1 0 1 1 2 3 4 4 5 4 4 4 3 4 3 3 2
9 8 7 6 5 4 4 3 3 3 3 2 2 2 1 1 1 1 2 2 2 1 1 1 2 4 5 4 2 1 2 2 4 4 4 4 3 3 3 3 3 3 3
9 8 7 7 6 5 4 4 4 3 3 2 2 2 2 2 4 3 1 2 2 2 2 2 3 4 6 7 8 7 5 2 2 3 3 3 3 3 2 3 3 3 2
9 8 8 7 7 6 5 5 4 3 3 3 2 2 2 3 3 2 1 1 2 2 3 2 3 5 4 5 6 6 6 6 4 0 2 1 2 2 3 3 2 1 1
9 8 8 8 7 6 5 5 4 3 3 3 2 2 2 3 3 2 1 3 3 3 3 3 4 4 3 3 4 5 4 4 2 1 2 1 1 1 2 2 2 3 2
10 9 8 8 7 7 6 5 4 4 3 3 3 2 2 3 2 2 3 4 4 4 3 3 3 4 4 2 3 4 4 4 6 6 6 5 5 3 0 2 2 3 2
10 9 9 8 7 6 6 5 4 4 4 4 3 3 3 3 3 2 3 3 4 3 4 4 4 3 3 1 2 3 3 3 3 5 5 4 4 4 3 2 2 2 2
9 8 8 8 8 7 6 5 5 5 4 4 4 3 3 3 4 2 1 2 3 3 3 3 4 5 4 1 1 2 1 1 2 3 3 3 3 3 2 1 1 2 2
9 8 8 7 7 7 7 6 5 5 5 4 4 3 3 3 3 3 2 1 2 2 2 2 4 6 4 2 1 2 1 4 3 3 3 2 2 2 2 1 1 0 1
9 8 7 7 6 6 6 6 5 4 4 4 4 4 3 3 4 5 4 2 1 1 2 5 5 5 5 4 4 3 4 3 2 2 2 2 2 2 2 3 3 3 2
9 8 7 7 6 5 5 5 5 4 4 4 4 4 3 3 3 4 5 5 5 4 3 5 6 6 4 2 4 5 4 2 2 2 2 2 2 2 3 2 3 3 3
8 7 7 7 6 6 5 3 3 3 2 3 3 4 4 4 3 2 3 3 3 3 3 4 4 4 4 4 4 3 3 3 3 3 3 3 2 2 2 2 2 3 3
7 7 6 6 6 6 5 4 4 2 4 2 2 0 2 3 6 4 2 1 2 3 4 4 4 4 4 4 4 3 4 3 3 4 3 3 3 3 3 3 3 4 4
6 6 5 5 6 6 6 6 5 3 3 3 2 2 2 3 5 5 4 3 3 4 5 5 4 4 4 4 4 4 3 3 3 3 4 4 4 4 4 4 4 4 5
6 5 5 5 5 5 5 5 5 5 5 4 5 6 5 5 5 5 6 5 5 6 6 5 5 4 4 4 4 3 3 3 4 4 5 5 5 5 5 5 5 5 5
5 5 4 4 4 5 5 5 5 5 5 5 5 6 7 7 7 6 7 6 6 6 6 5 5 4 4 4 4 4 4 4 4 5 5 5 5 5 5 5 5 4 6
4 4 5 5 5 5 5 5 5 5 5 5 5 5 6 6 5 6 7 7 6 6 6 6 5 5 5 5 5 5 5 5 5 5 5 5 5 5 6 6 6 5 6
5 5 6 5 4 4 4 4 4 5 5 5 5 4 5 6 6 6 6 6 6 5 5 5 4 4 5 5 5 5 5 5 5 5 5 5 5 5 6 6 6 6 6
4 4 5 4 4 4 4 4 5 5 5 6 5 5 8 7 6 5 5 5 5 5 5 5 5 5 5 4 4 5 5 5 5 5 5 5 6 6 6 6 6 6 6
4 5 4 4 4 4 4 4 5 5 5 6 5 5 6 6 6 5 5 5 4 5 5 5 5 5 5 5 6 6 6 5 5 5 6 6 6 6 6 7 7 7 7
4 4 4 4 4 4 4 4 4 5 5 5 5 5 5 5 5 6 5 4 5 5 5 5 5 5 6 5 6 6 5 5 5 6 7 7 7 7 7 7 7 8 7
3 3 3 3 4 4 4 4 4 4 5 5 5 5 5 5 5 5 5 5 6 5 5 5 5 6 7 7 6 5 3 3 5 7 6 7 8 8 7 8 7 7 7
3 3 3 3 3 3 3 4 4 4 4 4 4 4 4 4 5 4 4 5 5 5 5 5 6 6 6 6 6 5 4 4 6 7 7 7 7 7 7 7 8 7 8
Wind_Direction
180 181 181 179 180 187 196 213 216 249 262 268 279 280 278 264 222 217 260 181 185 16 354 19 349 334 306 267 249 220 213 179 167 136 114 117 119 110 109 106 105 103 96
176 176 176 175 177 180 178 194 180 194 204 184 175 145 101 55 129 178 194 121 102 67 15 13 347 340 302 285 247 179 170 170 167 149 146 141 126 122 117 117 109 105 102
170 170 167 170 171 175 172 176 167 171 173 164 149 150 128 113 125 136 141 126 120 63 358 353 338 328 300 355 213 160 168 163 156 155 151 139 136 135 131 116 108 112 114
166 165 164 164 165 164 159 159 164 161 155 151 144 160 148 139 146 144 140 138 133 109 60 30 11 347 337 343 138 142 153 145 146 154 146 145 140 150 154 147 143 137 124
163 162 159 157 154 152 151 154 154 150 148 150 159 147 143 147 113 127 152 151 147 129 104 85 70 59 44 29 38 104 143 154 152 148 149 149 150 166 179 182 165 156 142
165 160 155 152 150 153 155 155 152 149 149 151 150 140 125 91 56 24 341 139 133 128 121 115 111 100 89 75 59 56 51 103 136 155 158 156 166 181 179 187 184 176 162
164 160 157 155 156 159 158 151 149 146 141 148 151 147 127 85 70 62 349 138 126 110 106 102 92 95 105 100 98 103 80 59 46 55 143 162 166 178 189 189 187 201 174
163 161 160 158 157 157 155 151 149 145 139 142 145 141 134 110 91 115 203 153 126 112 108 107 106 106 99 101 111 104 99 91 88 117 117 124 109 144 198 199 180 178 175
168 167 164 161 157 157 156 155 153 151 146 148 135 132 135 119 109 167 230 155 137 126 120 113 119 121 82 52 123 120 114 119 105 94 79 85 82 97 178 214 186 198 195
172 170 166 161 158 159 157 155 155 156 155 151 134 135 133 120 114 158 248 169 145 144 137 134 109 107 98 49 138 133 135 128 129 133 134 150 149 150 185 243 246 238 227
169 167 163 161 160 158 156 156 154 153 149 145 135 136 136 127 133 140 277 193 161 155 144 144 124 116 118 116 248 149 145 212 174 167 161 158 156 155 172 176 308 303 298
161 162 161 161 162 157 155 154 152 152 154 157 156 157 153 151 130 140 158 265 323 149 150 136 120 128 140 158 170 120 214 245 209 184 182 177 174 168 152 152 143 24 350
156 157 156 156 158 157 158 156 159 169 177 176 178 178 168 157 143 139 151 161 322 170 120 82 114 151 173 172 166 196 221 226 218 208 196 189 185 167 180 178 177 186 202
155 154 155 158 160 159 162 167 177 183 192 193 191 187 171 166 166 167 169 170 175 183 173 155 171 188 204 174 177 198 216 221 238 231 227 209 187 183 208 211 210 205 210
155 156 161 165 162 162 164 164 192 185 204 212 204 191 183 186 161 136 195 186 186 172 184 192 192 184 193 195 197 200 215 213 223 234 229 217 215 217 224 229 244 246 246
158 164 171 168 165 174 168 153 63 76 93 87 35 246 160 122 140 154 176 174 154 176 216 213 211 211 214 213 211 208 214 217 226 236 234 233 231 230 228 227 240 249 254
163 171 172 170 173 183 183 179 172 149 122 130 146 147 144 145 153 168 176 177 183 189 221 230 229 229 232 231 228 229 229 216 222 236 239 240 241 243 240 238 241 248 257
163 165 173 176 181 186 191 193 193 190 186 187 182 180 178 173 173 175 171 175 199 209 228 237 239 238 236 239 239 240 238 230 231 243 248 248 247 247 247 248 249 253 258
167 170 174 176 182 187 194 198 197 199 200 194 183 175 186 185 185 191 189 210 217 217 224 232 238 242 240 238 238 236 239 239 240 248 249 251 251 253 255 261 263 250 260
167 155 172 185 188 191 195 201 203 205 208 206 204 196 181 190 202 197 204 220 230 230 231 235 238 240 236 234 228 230 234 236 235 239 245 246 246 250 254 259 264 263 260
173 171 182 195 196 198 200 206 211 216 216 215 215 196 188 207 213 215 217 220 229 236 238 241 238 235 235 237 239 237 238 238 234 235 237 237 241 248 255 257 260 263 267
181 182 192 199 194 199 205 210 215 219 216 217 215 193 182 218 227 223 219 221 226 233 235 231 232 235 236 234 238 243 242 240 242 242 243 244 243 249 253 255 259 265 264
187 187 191 195 191 183 199 210 214 217 217 217 214 208 200 218 226 226 225 224 223 225 227 224 230 234 233 232 236 239 242 243 243 246 250 252 255 255 254 256 258 262 263
191 191 194 194 194 199 204 213 219 219 219 222 222 221 217 214 225 227 227 223 222 223 226 226 231 236 235 236 238 238 240 251 256 254 251 254 258 260 259 257 259 262 264
199 199 199 201 205 207 206 213 222 223 224 225 226 227 224 218 222 225 224 222 224 228 229 227 228 230 230 234 241 244 232 228 253 262 249 250 256 259 264 265 262 264 262
206 204 202 203 209 217 223 225 225 230 232 229 229 229 228 226 226 228 226 226 227 224 224 224 226 224 224 229 233 229 207 210 231 250 255 253 255 257 259 263 265 262 263
Height
1547 1548 1549 1549 1550 1550 1550 1550 1550 1550 1549 1549 1548 1548 1547 1547 1546 1546 1546 1546 1545 1545 1545 1544 1544 1544 1545 1545 1545 1545 1545 1546 1547 1548 1548 1548 1548 1549 1549 1550 1550 1549 1548
1545 1547 1547 1548 1548 1549 1549 1549 1549 1549 1548 1548 1547 1547 1546 1546 1545 1545 1545 1545 1544 1544 1544 1543 1543 1543 1543 1543 1543 1544 1544 1544 1545 1545 1547 1547 1548 1548 1548 1549 1549 1549 1548
1544 1545 1546 1547 1547 1547 1548 1548 1548 1547 1547 1547 1546 1546 1545 1545 1545 1544 1544 1544 1543 1543 1543 1542 1542 1542 1542 1542 1542 1542 1543 1544 1544 1544 1545 1546 1547 1548 1548 1548 1549 1548 1548
1542 1543 1544 1545 1546 1546 1547 1547 1546 1546 1546 1545 1545 1545 1545 1544 1544 1543 1543 1542 1542 1542 1541 1541 1541 1541 1541 1541 1541 1541 1542 1542 1543 1543 1544 1545 1546 1546 1547 1548 1548 1548 1548
1540 1541 1542 1544 1544 1545 1545 1545 1545 1545 1545 1544 1544 1544 1544 1543 1543 1542 1542 1542 1541 1541 1540 1540 1540 1540 1540 1540 1540 1540 1541 1541 1542 1542 1543 1544 1545 1545 1546 1547 1547 1547 1547
1538 1539 1540 1541 1542 1543 1543 1543 1544 1544 1544 1543 1543 1543 1542 1542 1542 1541 1541 1541 1540 1540 1540 1540 1539 1539 1539 1539 1539 1539 1540 1541 1541 1542 1542 1542 1543 1544 1545 1545 1546 1546 1546
1535 1537 1538 1539 1540 1541 1541 1542 1542 1542 1542 1542 1542 1542 1541 1540 1540 1540 1540 1539 1539 1539 1539 1539 1539 1539 1539 1539 1539 1539 1539 1539 1540 1541 1541 1542 1542 1542 1543 1544 1544 1544 1544
1532 1534 1535 1536 1537 1538 1539 1540 1540 1540 1541 1541 1540 1540 1539 1539 1538 1538 1538 1538 1538 1538 1538 1538 1538 1538 1538 1538 1539 1539 1539 1539 1539 1540 1540 1541 1541 1541 1541 1542 1542 1542 1542
1529 1531 1532 1533 1535 1536 1537 1538 1538 1539 1539 1539 1538 1538 1538 1537 1536 1535 1536 1537 1537 1537 1537 1537 1537 1537 1537 1538 1539 1539 1539 1539 1539 1539 1539 1539 1540 1540 1540 1541 1541 1541 1541
1526 1528 1530 1531 1532 1533 1534 1535 1536 1537 1537 1537 1536 1536 1536 1535 1534 1533 1533 1536 1536 1536 1536 1536 1536 1536 1537 1537 1538 1538 1539 1539 1539 1539 1538 1539 1539 1539 1539 1539 1540 1540 1540
1523 1525 1527 1528 1529 1530 1532 1533 1534 1534 1535 1535 1534 1534 1534 1534 1533 1533 1533 1534 1535 1535 1535 1536 1536 1535 1536 1536 1537 1538 1538 1538 1539 1539 1539 1539 1539 1539 1539 1538 1538 1539 1539
1520 1522 1524 1525 1527 1528 1529 1530 1531 1532 1533 1533 1533 1533 1533 1533 1533 1533 1532 1533 1533 1534 1535 1535 1535 1535 1535 1536 1536 1536 1537 1537 1538 1538 1538 1538 1538 1538 1537 1537 1536 1536 1536
1518 1519 1521 1523 1525 1526 1527 1528 1529 1530 1532 1532 1532 1532 1532 1532 1532 1532 1532 1532 1532 1533 1534 1534 1534 1535 1535 1535 1535 1536 1536 1537 1538 1537 1537 1537 1537 1537 1536 1535 1535 1535 1535
1514 1516 1518 1520 1522 1523 1525 1527 1528 1529 1530 1530 1531 1531 1530 1530 1531 1531 1531 1531 1532 1532 1533 1533 1534 1534 1534 1534 1534 1535 1535 1536 1536 1536 1536 1536 1535 1535 1535 1535 1534 1534 1534
1512 1513 1515 1517 1519 1521 1522 1523 1525 1526 1527 1528 1528 1529 1528 1528 1529 1529 1530 1530 1530 1531 1531 1532 1533 1533 1533 1533 1533 1533 1534 1533 1533 1534 1534 1534 1533 1533 1533 1533 1532 1532 1532
1509 1511 1513 1514 1516 1518 1520 1520 1520 1523 1524 1524 1525 1525 1525 1526 1525 1526 1527 1528 1528 1529 1530 1531 1531 1531 1531 1531 1531 1531 1531 1531 1531 1532 1531 1531 1531 1531 1531 1530 1530 1530 1529
1507 1509 1510 1511 1513 1515 1517 1517 1518 1519 1520 1520 1521 1522 1522 1523 1523 1524 1525 1525 1526 1527 1528 1529 1529 1529 1529 1529 1529 1529 1529 1529 1529 1529 1529 1529 1529 1529 1528 1528 1527 1527 1527
1505 1506 1507 1509 1511 1513 1514 1515 1516 1516 1517 1517 1518 1519 1519 1520 1520 1521 1522 1522 1523 1524 1525 1526 1526 1526 1526 1526 1526 1526 1526 1526 1526 1526 1526 1526 1526 1525 1525 1525 1524 1524 1524
1502 1504 1505 1507 1509 1510 1511 1512 1513 1513 1514 1515 1515 1516 1516 1517 1517 1518 1518 1519 1520 1521 1521 1522 1522 1522 1522 1522 1522 1522 1522 1522 1522 1522 1522 1522 1522 1522 1522 1521 1521 1520 1520
1500 1501 1503 1504 1506 1506 1507 1508 1509 1510 1511 1511 1512 1512 1513 1514 1514 1514 1514 1515 1516 1517 1517 1518 1518 1518 1518 1519 1518 1518 1518 1518 1518 1518 1518 1518 1518 1518 1518 1518 1517 1517 1516
1498 1499 1500 1502 1502 1503 1504 1505 1506 1507 1507 1508 1508 1509 1509 1510 1510 1511 1511 1511 1512 1512 1513 1513 1514 1514 1514 1515 1515 1514 1514 1514 1514 1514 1514 1514 1514 1514 1514 1514 1513 1513 1513
1496 1497 1498 1499 1499 1499 1499 1501 1502 1503 1504 1505 1505 1505 1505 1506 1507 1507 1507 1507 1508 1508 1508 1509 1509 1510 1510 1510 1510 1510 1510 1510 1510 1510 1510 1510 1510 1510 1509 1509 1509 1509 1508
1494 1494 1495 1496 1496 1496 1496 1497 1499 1500 1500 1501 1501 1501 1501 1502 1502 1503 1503 1504 1504 1504 1504 1504 1505 1505 1505 1505 1505 1505 1505 1505 1505 1505 1505 1505 1505 1505 1505 1504 1504 1504 1504
1492 1492 1493 1494 1494 1494 1494 1495 1496 1496 1497 1497 1497 1498 1498 1497 1498 1499 1499 1499 1499 1499 1500 1500 1500 1501 1501 1501 1500 1501 1501 1500 1500 1501 1500 1500 1500 1500 1500 1500 1499 1499 1499
1490 1491 1491 1491 1492 1492 1492 1492 1493 1493 1493 1493 1493 1494 1494 1493 1494 1494 1495 1495 1495 1495 1496 1496 1496 1496 1496 1496 1496 1496 1495 1495 1495 1495 1495 1495 1495 1495 1495 1495 1494 1494 1494
1488 1489 1489 1489 1489 1490 1490 1490 1490 1490 1490 1490 1490 1490 1490 1490 1490 1490 1491 1491 1491 1491 1491 1491 1491 1492 1492 1492 1491 1491 1490 1490 1490 1490 1490 1490 1490 1490 1490 1490 1490 1490 1490